Cochrane, Alberta

5:48 AM MST on January 19, 2018 (GMT -0700)
Cochrane

Weather History for 71860 - July, 2013

Change the Weather History Date:

Sunday, July 7, 2013

  Actual Average Record
Temperature  
Mean Temperature 51 °F -  
Max Temperature 68 °F 70 °F - ()
Min Temperature 34 °F 44 °F - ()
Degree Days  
Heating Degree Days 14    
Growing Degree Days 1 (Base 50)    
Moisture  
Dew Point 45 °F    
Average Humidity 68    
Maximum Humidity 100    
Minimum Humidity 43    
Precipitation  
Precipitation 0.00 in - - ()
Sea Level Pressure  
Sea Level Pressure 30.06 in    
Wind  
Wind Speed 5 mph ()    
Max Wind Speed 10 mph    
Max Gust Speed -    
Visibility 17.5 miles    
Events Fog    
T = Trace of Precipitation, MM = Missing Value Source: Averaged Metar Reports

Daily Weather History Graph

Daily Weather History Graph

Search for Another Location

Airport or City:

Trip Planner

Search our weather history database for the weather conditions in past years. The results will help you decide how hot, cold, wet, or windy it might be!

Date:

Astronomy

Jul. 07, 2013 Rise Set
Actual Time 5:31 AM MDT 9:53 PM MDT
Civil Twilight 4:46 AM MDT 10:38 PM MDT
Nautical Twilight 3:38 AM MDT 11:46 PM MDT
Astronomical Twilight 2:15 AM MDT 1:10 AM MDT
Moon 5:19 AM MDT (7/7) 9:09 PM MDT (7/7)
Length of Visible Light 17h 52m
Length of Day
16h 21m
Waning Crescent, 0% of the Moon is Illuminated
Jul 7
Waning Crescent
Jul 8
New
Jul 15
First Quarter
Jul 22
Full
Jul 29
Last Quarter

Hourly Weather History & Observations

Time (MDT) Temp. Windchill Dew Point Humidity Pressure Visibility Wind Dir Wind Speed Gust Speed Precip Events Conditions
5:00 AM 37.4 °F 33.8 °F 37.4 °F 100% 30.12 in 15.0 mi NNW 4.6 mph - N/A Fog Shallow Fog
6:00 AM 35 °F - 35 °F 100% 30.10 in 28 mi NW 6.9 mph - -   Scattered Clouds
6:00 AM 35.6 °F 29.2 °F 35.6 °F 100% 30.10 in 30.0 mi NW 8.1 mph - N/A   Partly Cloudy
7:00 AM 39.2 °F 35.0 °F 39.2 °F 100% 30.08 in 40.0 mi NW 5.8 mph - N/A Fog Shallow Fog
8:00 AM 44.6 °F 40.7 °F 42.8 °F 93% 30.07 in 40.0 mi NW 6.9 mph - N/A   Clear
9:00 AM 51.8 °F - 48.2 °F 88% 30.06 in 40.0 mi NNW 5.8 mph - N/A   Clear
10:00 AM 57.2 °F - 46.4 °F 67% 30.06 in 40.0 mi Calm Calm - N/A   Partly Cloudy
11:00 AM 59.0 °F - 41.0 °F 51% 30.06 in 40.0 mi Calm Calm - N/A   Scattered Clouds
12:00 PM 62 °F - 45 °F 43% 30.06 in 37 mi Calm Calm - -   Scattered Clouds
12:00 PM 60.8 °F - 44.6 °F 55% 30.06 in 40.0 mi Variable 5.8 mph - N/A   Mostly Cloudy
1:00 PM 64.4 °F - 46.4 °F 52% 30.04 in 40.0 mi SE 5.8 mph - N/A   Scattered Clouds
2:00 PM 64.4 °F - 46.4 °F 52% 30.04 in 40.0 mi ESE 8.1 mph - N/A   Mostly Cloudy
3:00 PM 68.0 °F - 50.0 °F 52% 30.03 in 40.0 mi SE 5.8 mph - N/A   Mostly Cloudy
4:00 PM 64.4 °F - 46.4 °F 52% 30.05 in 30.0 mi ESE 5.8 mph - N/A   Mostly Cloudy
5:00 PM 66.2 °F - 50.0 °F 56% 30.04 in 25.0 mi East 9.2 mph - N/A   Mostly Cloudy
6:00 PM 65 °F - 48 °F 44% 30.06 in 25 mi East 6.9 mph - -   Partly Cloudy
6:00 PM 64.4 °F - 48.2 °F 56% 30.05 in 25.0 mi ENE 9.2 mph - N/A   Mostly Cloudy
7:00 PM 66.2 °F - 50.0 °F 56% 30.04 in 25.0 mi East 10.4 mph - N/A   Mostly Cloudy
8:00 PM 62.6 °F - 50.0 °F 63% 30.04 in 25.0 mi East 9.2 mph - N/A   Mostly Cloudy
9:00 PM 59.0 °F - 50.0 °F 72% 30.05 in 25.0 mi ESE 8.1 mph - N/A   Mostly Cloudy
10:00 PM 57.2 °F - 50.0 °F 77% 30.04 in 20.0 mi East 6.9 mph - N/A   Mostly Cloudy